This is the latest recevied weather packets stored in our database for station/object DG8SF-13. If no packets are shown the sender has not sent any weather packets the latest 10 day(s).
| Time | Temp. | Humidity | Pressure | Rain* | Wind** | Luminosity | Snow |
|---|---|---|---|---|---|---|---|
| 1787568978 | 23.33° C | 48% | 1018.9 hPa | 0 mm | - | - | - |
| 1787568653 | 24.44° C | 46% | 1019 hPa | 0 mm | - | - | - |
| 1787568343 | 23.33° C | 48% | 1019.1 hPa | 0 mm | - | - | - |
| 1787568018 | 22.78° C | 48% | 1019.2 hPa | 0 mm | - | - | - |
| 1787567696 | 22.22° C | 47% | 1019.2 hPa | 0 mm | - | - | - |
| 1787567382 | 22.78° C | 47% | 1019.2 hPa | 0 mm | - | - | - |
| 1787566745 | 21.67° C | 49% | 1019.4 hPa | 0 mm | - | - | - |
| 1787566435 | 22.78° C | 48% | 1019.5 hPa | 0 mm | - | - | - |
| 1787566113 | 22.22° C | 48% | 1019.6 hPa | 0 mm | - | - | - |
| 1787565798 | 22.22° C | 48% | 1019.6 hPa | 0 mm | - | - | - |
| 1787565473 | 22.22° C | 48% | 1019.5 hPa | 0 mm | - | - | - |
| 1787565164 | 21.67° C | 48% | 1019.7 hPa | 0 mm | - | - | - |
| 1787564849 | 22.22° C | 47% | 1019.8 hPa | 0 mm | - | - | - |
| 1787564546 | 21.67° C | 48% | 1019.9 hPa | 0 mm | - | - | - |
| 1787564226 | 21.11° C | 50% | 1020 hPa | 0 mm | - | - | - |
| 1787563914 | 21.67° C | 49% | 1019.9 hPa | 0 mm | - | - | - |
| 1787563601 | 21.11° C | 51% | 1020.1 hPa | 0 mm | - | - | - |
| 1787563292 | 21.11° C | 50% | 1020.1 hPa | 0 mm | - | - | - |
| 1787562978 | 21.11° C | 50% | 1020.2 hPa | 0 mm | - | - | - |
| 1787562667 | 21.11° C | 50% | 1020.2 hPa | 0 mm | - | - | - |
| 1787562353 | 20.56° C | 49% | 1020.3 hPa | 0 mm | - | - | - |
| 1787562045 | 21.11° C | 50% | 1020.3 hPa | 0 mm | - | - | - |
| 1787561719 | 20.56° C | 50% | 1020.2 hPa | 0 mm | - | - | - |
| 1787561405 | 20° C | 52% | 1020.3 hPa | 0 mm | - | - | - |
| 1787561084 | 20° C | 52% | 1020.4 hPa | 0 mm | - | - | - |
* Rain latest hour (hover to see other rain measurements)
** Current wind speed in m/s (hover to see current wind gust speed)